Content
SEND FEEDBACK

Daily
Averages
Monthly
Summary
United States of America

PUT IN BAY, OHIO


Home > North America > United States > Ohio
Elevation: 561 feet     Latitude: 41 39N     Longitude: 082 48W

WEATHER
 
SELECT A DAY
Number of Records: 122,466;   Date Range: 12/10/00 - 7/9/14
 
SHARE

PRINT THIS DATA

[ ← Previous Day ]
WEATHER ALMANAC - JANUARY 17, 2014
[ Next Day → ]
[ °C ]   °F
Weather ElementAverageHighLow
Temperature25.9 °F31.3 °F (2:00 pm)17.1 °F (11:00 pm)
Dewpoint21.3 °F27.1 °F (2:00 am)13.3 °F (11:00 pm)
Humidity81.9 %95 % (6:00 pm)62 % (1:00 pm)
Barometer29.79 in29.95 in (11:00 pm)29.67 in (1:00 am)
Wind Speed10.6 mph20.7 mph (10:00 pm)
Wind Gust26.5 mph (10:00 pm)
Weather ElementAverage
Wind DirectionWSW (243.7 °)

Weather ElementTotal
Precipitation0.02 in
Heating Degree Days40.8 (Base 65)
Averaged from 27 records on January 17, 2014
WEATHER CONDITIONS BREAKOUT
WIND DIRECTION BREAKOUT
WEATHER BY HOUR - JANUARY 17, 2014
[ °C ]   °F
Local TimeTemperatureDewpointHumidityBarometerVisibilityWind DirectionWind SpeedGust SpeedPrecipitationEventsConditions
1:00 AM28.0 °F26.0 °F91 %29.67 inSSW (200°)12.7 mph
1:00 AM27.9 °F26.4 °F94 %29.67 inSSW (200°)12.7 mph18.4 mph
2:00 AM28.9 °F27.1 °F93 %29.67 inSSW (210°)12.7 mph19.6 mph
3:00 AM29.8 °F26.2 °F86 %29.68 inSW (220°)13.8 mph21.9 mph0.01 in
4:00 AM28.6 °F24.3 °F84 %29.69 inSW (220°)13.8 mph20.7 mph
5:00 AM27.1 °F21.6 °F80 %29.70 inWSW (250°)16.1 mph24.2 mph
6:00 AM25.2 °F19.8 °F80 %29.74 inSW (230°)13.8 mph20.7 mph
7:00 AM23.0 °F18.0 °F73 %29.77 inWSW (240°)11.5 mph
7:00 AM23.0 °F18.0 °F81 %29.77 inWSW (240°)11.5 mph
8:00 AM22.3 °F16.3 °F78 %29.78 inWSW (240°)10.4 mph
9:00 AM23.5 °F17.6 °F78 %29.80 inWSW (250°)6.9 mph
10:00 AM25.5 °F18.3 °F74 %29.81 inSW (230°)6.9 mph
11:00 AM25.9 °F19.8 °F78 %29.82 inWSW (240°)5.8 mph
12:00 PM26.6 °F20.5 °F78 %29.81 inWSW (250°)3.5 mph
1:00 PM29.0 °F21.0 °F62 %29.79 inWest (260°)2.3 mph
1:00 PM28.6 °F21.0 °F73 %29.79 inWest (260°)2.3 mph
2:00 PM31.3 °F23.7 °F74 %29.77 inWest (280°)1.2 mph
3:00 PM30.2 °F24.6 °F80 %29.78 inWSW (240°)4.6 mph
4:00 PM29.1 °F22.5 °F76 %29.80 inWest (270°)5.8 mph
5:00 PM28.2 °F22.6 °F80 %29.81 inWest (280°)5.8 mph
6:00 PM27.0 °F25.7 °F95 %29.84 inWest (260°)12.7 mph
7:00 PM26.0 °F24.0 °F86 %29.88 inWSW (250°)13.8 mph
7:00 PM27.5 °F23.5 °F85 %29.88 inWSW (250°)13.8 mph
8:00 PM23.2 °F20.7 °F90 %29.90 inWSW (250°)16.1 mph21.9 mph
9:00 PM19.9 °F17.6 °F91 %29.91 inWSW (250°)17.3 mph23.0 mph0.01 in
10:00 PM18.0 °F14.7 °F87 %29.93 inWSW (250°)20.7 mph26.5 mph
11:00 PM17.1 °F13.3 °F85 %29.95 inWest (260°)17.3 mph24.2 mph
Hourly data recorded from CXHA, located miles away from Put In Bay, Ohio







STORIES FROM OUR PARTNERS